,,Stat5,,Stat1,,Stat2,,Stat3,,Stat4,,Wind1,,Wind1,
time,status,PA1M_AVG,status,PR1M_SUM,status,RH1M_AVG,status,SR1M_AVG,status,TA1M_AVG,status,W1dAve1m,status,W1sAve1m,
2002-03-11, 00:00:00,VALID,918.937,VALID,0,VALID,86.0635,VALID,-0.0169808,VALID,20.704,VALID,133,VALID,1.42558,
2002-03-11, 00:01:00,VALID,918.93,VALID,0,VALID,86.1639,VALID,-0.0169808,VALID,20.6781,VALID,122,VALID,1.28378,
2002-03-11, 00:02:01,VALID,918.918,VALID,0,VALID,86.3292,VALID,0,VALID,20.6657,VALID,137,VALID,1.35271,
2002-03-11, 00:03:00,VALID,918.913,VALID,0,VALID,86.4907,VALID,-0.0169808,VALID,20.6366,VALID,131,VALID,1.6418,
2002-03-11, 00:04:00,VALID,918.898,VALID,0,VALID,86.4577,VALID,0,VALID,20.624,VALID,109,VALID,1.56365,
2002-03-11, 00:05:00,VALID,918.897,VALID,0,VALID,86.5238,VALID,-0.0169808,VALID,20.6108,VALID,140,VALID,1.61529,
2002-03-11, 00:06:00,VALID,918.879,VALID,0,VALID,86.5848,VALID,-0.0339617,VALID,20.5944,VALID,146,VALID,1.95232,
2002-03-11, 00:07:00,VALID,918.856,VALID,0,VALID,86.2835,VALID,-0.0169808,VALID,20.617,VALID,139,VALID,1.52835,
2002-03-11, 00:08:00,VALID,918.854,VALID,0,VALID,86.2072,VALID,-0.0169808,VALID,20.6394,VALID,127,VALID,1.63622,
2002-03-11, 00:09:00,VALID,918.845,VALID,0,VALID,86.3356,VALID,0,VALID,20.6167,VALID,128,VALID,1.1683,
2002-03-11, 00:10:00,VALID,918.839,VALID,0,VALID,86.3788,VALID,-0.0339617,VALID,20.6011,VALID,140,VALID,1.16106,
2002-03-11, 00:11:00,VALID,918.825,VALID,0,VALID,86.3318,VALID,0,VALID,20.5877,VALID,127,VALID,1.6569,
2002-03-11, 00:12:00,VALID,918.813,VALID,0,VALID,86.3826,VALID,0,VALID,20.5755,VALID,117,VALID,1.61452,
2002-03-11, 00:13:00,VALID,918.805,VALID,0,VALID,86.4602,VALID,-0.0169808,VALID,20.5459,VALID,119,VALID,1.67628,
2002-03-11, 00:14:01,VALID,918.796,VALID,0,VALID,86.6611,VALID,-0.0169808,VALID,20.5168,VALID,124,VALID,1.47718,
2002-03-11, 00:15:00,VALID,918.786,VALID,0,VALID,86.7692,VALID,0,VALID,20.488,VALID,130,VALID,1.30709,
2002-03-11, 00:16:00,VALID,918.783,VALID,0,VALID,86.8722,VALID,-0.0169808,VALID,20.4554,VALID,121,VALID,1.14227,
2002-03-11, 00:17:00,VALID,918.767,VALID,0,VALID,86.9434,VALID,0,VALID,20.4393,VALID,116,VALID,1.15605,
2002-03-11, 00:18:00,VALID,918.75,VALID,0,VALID,87.2613,VALID,-0.0339617,VALID,20.4075,VALID,99,VALID,1.52168,
2002-03-11, 00:19:01,VALID,918.743,VALID,0,VALID,87.3834,VALID,-0.0339617,VALID,20.3561,VALID,120,VALID,1.46664,
2002-03-11, 00:20:00,VALID,918.74,VALID,0,VALID,87.5207,VALID,-0.0339617,VALID,20.33,VALID,121,VALID,1.61367,
2002-03-11, 00:21:00,VALID,918.715,VALID,0,VALID,87.48,VALID,0,VALID,20.3197,VALID,125,VALID,1.58914,
2002-03-11, 00:22:01,VALID,918.711,VALID,0,VALID,87.564,VALID,-0.0509425,VALID,20.3203,VALID,117,VALID,0.798109,
2002-03-11, 00:23:00,VALID,918.714,VALID,0,VALID,87.6644,VALID,-0.0339617,VALID,20.2939,VALID,127,VALID,1.24199,
2002-03-11, 00:24:00,VALID,918.719,VALID,0,VALID,87.6263,VALID,0,VALID,20.284,VALID,135,VALID,1.32525,
2002-03-11, 00:25:00,VALID,918.718,VALID,0,VALID,87.5093,VALID,-0.0169808,VALID,20.3038,VALID,119,VALID,1.57873,
2002-03-11, 00:26:00,VALID,918.727,VALID,0,VALID,87.5703,VALID,-0.0169808,VALID,20.3173,VALID,121,VALID,1.36113,
2002-03-11, 00:27:01,VALID,918.733,VALID,0,VALID,87.7509,VALID,-0.0509425,VALID,20.281,VALID,152,VALID,1.2519,
2002-03-11, 00:28:00,VALID,918.7,VALID,0,VALID,87.7598,VALID,-0.0339617,VALID,20.278,VALID,142,VALID,1.36094,
2002-03-11, 00:29:00,VALID,918.698,VALID,0,VALID,87.845,VALID,-0.0509425,VALID,20.2783,VALID,100,VALID,1.41747,
2002-03-11, 00:30:01,VALID,918.69,VALID,0,VALID,87.9035,VALID,0,VALID,20.2683,VALID,109,VALID,1.54132,
2002-03-11, 00:31:00,VALID,918.696,VALID,0,VALID,87.9938,VALID,0,VALID,20.2487,VALID,103,VALID,1.04387,
2002-03-11, 00:32:00,VALID,918.689,VALID,0,VALID,88.1044,VALID,-0.0169808,VALID,20.2427,VALID,112,VALID,1.21957,
2002-03-11, 00:33:01,VALID,918.692,VALID,0,VALID,88.3066,VALID,0,VALID,20.2136,VALID,106,VALID,1.41506,
2002-03-11, 00:34:00,VALID,918.686,VALID,0,VALID,88.5545,VALID,-0.0509425,VALID,20.1682,VALID,124,VALID,1.27051,
2002-03-11, 00:35:01,VALID,918.65,VALID,0,VALID,88.7033,VALID,-0.0509425,VALID,20.1366,VALID,133,VALID,1.13387,
2002-03-11, 00:36:00,VALID,918.634,VALID,0,VALID,88.9526,VALID,-0.0169808,VALID,20.0876,VALID,120,VALID,1.42168,
2002-03-11, 00:37:00,VALID,918.595,VALID,0,VALID,89.0314,VALID,-0.0339617,VALID,20.065,VALID,124,VALID,0.904046,
2002-03-11, 00:38:01,VALID,918.568,VALID,0,VALID,89.2654,VALID,-0.0509425,VALID,20.02,VALID,119,VALID,1.41982,
2002-03-11, 00:39:01,VALID,918.525,VALID,0,VALID,89.4383,VALID,-0.0509425,VALID,19.9974,VALID,125,VALID,1.26002,
2002-03-11, 00:40:01,VALID,918.501,VALID,0,VALID,89.5871,VALID,-0.0339617,VALID,19.9743,VALID,127,VALID,1.36904,
2002-03-11, 00:41:01,VALID,918.478,VALID,0,VALID,89.4841,VALID,0.0169808,VALID,20.0034,VALID,122,VALID,1.60857,
2002-03-11, 00:42:00,VALID,918.48,VALID,0,VALID,89.3226,VALID,-0.0169808,VALID,20.0387,VALID,118,VALID,1.28926,
2002-03-11, 00:43:01,VALID,918.469,VALID,0,VALID,89.273,VALID,-0.0169808,VALID,20.0516,VALID,136,VALID,1.1875,
2002-03-11, 00:44:00,VALID,918.47,VALID,0,VALID,89.2399,VALID,-0.0169808,VALID,20.0613,VALID,123,VALID,1.24805,
2002-03-11, 00:45:00,VALID,918.482,VALID,0,VALID,89.1738,VALID,-0.0169808,VALID,20.0909,VALID,138,VALID,1.15605,
2002-03-11, 00:46:01,VALID,918.485,VALID,0,VALID,89.1357,VALID,-0.0169808,VALID,20.1142,VALID,138,VALID,1.20107,
2002-03-11, 00:47:01,VALID,918.48,VALID,0,VALID,89.1077,VALID,-0.0169808,VALID,20.1137,VALID,145,VALID,1.32312,
2002-03-11, 00:48:00,VALID,918.487,VALID,0,VALID,89.0301,VALID,0,VALID,20.1167,VALID,134,VALID,1.26974,
2002-03-11, 00:49:01,VALID,918.49,VALID,0,VALID,89.0721,VALID,0,VALID,20.113,VALID,141,VALID,1.36839,
2002-03-11, 00:50:01,VALID,918.476,VALID,0,VALID,89.1229,VALID,0,VALID,20.1132,VALID,142,VALID,1.71406,
2002-03-11, 00:51:01,VALID,918.488,VALID,0,VALID,89.0085,VALID,-0.0169808,VALID,20.146,VALID,141,VALID,1.84312,
2002-03-11, 00:52:01,VALID,918.462,VALID,0,VALID,88.9309,VALID,-0.0339617,VALID,20.1488,VALID,134,VALID,1.34805,
2002-03-11, 00:53:01,VALID,918.442,VALID,0,VALID,88.9386,VALID,0,VALID,20.1617,VALID,129,VALID,1.3768,
2002-03-11, 00:54:01,VALID,918.413,VALID,0,VALID,88.8534,VALID,0,VALID,20.194,VALID,128,VALID,1.57072,
2002-03-11, 00:55:01,VALID,918.39,VALID,0,VALID,88.655,VALID,0,VALID,20.2365,VALID,130,VALID,1.55529,
2002-03-11, 00:56:01,VALID,918.342,VALID,0,VALID,88.5202,VALID,0.0169808,VALID,20.2718,VALID,127,VALID,1.27673,
2002-03-11, 00:57:01,VALID,918.325,VALID,0,VALID,88.4833,VALID,0,VALID,20.281,VALID,115,VALID,1.4978,
2002-03-11, 00:58:01,VALID,918.298,VALID,0,VALID,88.318,VALID,0,VALID,20.2974,VALID,118,VALID,1.1998,
2002-03-11, 00:59:01,VALID,918.281,VALID,0,VALID,88.1476,VALID,0,VALID,20.3332,VALID,116,VALID,1.24177,
2002-03-11, 01:00:01,VALID,918.247,VALID,0,VALID,87.7687,VALID,0,VALID,20.3687,VALID,121,VALID,1.18926,
2002-03-11, 01:01:01,VALID,918.221,VALID,0,VALID,87.7433,VALID,-0.0169808,VALID,20.3881,VALID,118,VALID,1.42288,
2002-03-11, 01:02:01,VALID,918.209,VALID,0,VALID,87.8475,VALID,-0.0169808,VALID,20.3884,VALID,112,VALID,1.29379,
2002-03-11, 01:03:01,VALID,918.192,VALID,0,VALID,87.7089,VALID,0,VALID,20.3779,VALID,121,VALID,1.44471,
2002-03-11, 01:04:01,VALID,918.192,VALID,0,VALID,87.6721,VALID,-0.0169808,VALID,20.3787,VALID,116,VALID,1.45189,
2002-03-11, 01:05:01,VALID,918.185,VALID,0,VALID,87.8056,VALID,0,VALID,20.3429,VALID,77,VALID,1.46274,
2002-03-11, 01:06:01,VALID,918.181,VALID,0,VALID,88.0688,VALID,0,VALID,20.2683,VALID,78,VALID,1.78203,
2002-03-11, 01:07:01,VALID,918.171,VALID,0,VALID,88.4884,VALID,0,VALID,20.1749,VALID,106,VALID,0.893159,
2002-03-11, 01:08:01,VALID,918.15,VALID,0,VALID,88.8826,VALID,0,VALID,20.1194,VALID,111,VALID,0.910937,
2002-03-11, 01:09:01,VALID,918.133,VALID,0,VALID,89.0695,VALID,0,VALID,20.0844,VALID,94,VALID,1.05809,
2002-03-11, 01:10:01,VALID,918.12,VALID,0,VALID,89.1115,VALID,0,VALID,20.0548,VALID,126,VALID,0.935444,
2002-03-11, 01:11:01,VALID,918.091,VALID,0,VALID,89.1573,VALID,-0.0169808,VALID,20.0394,VALID,125,VALID,1.76242,
2002-03-11, 01:12:01,VALID,918.063,VALID,0,VALID,89.109,VALID,-0.0679233,VALID,20.0459,VALID,135,VALID,1.63569,
2002-03-11, 01:13:00,VALID,918.02,VALID,0,VALID,88.7097,VALID,-0.0339617,VALID,20.1043,VALID,110,VALID,1.74679,
2002-03-11, 01:14:00,VALID,918.006,VALID,0,VALID,88.4032,VALID,-0.0509425,VALID,20.1689,VALID,133,VALID,1.58711,
2002-03-11, 01:15:00,VALID,917.961,VALID,0,VALID,88.2316,VALID,-0.0679233,VALID,20.2074,VALID,124,VALID,1.40752,
2002-03-11, 01:16:00,VALID,917.922,VALID,0,VALID,88.1667,VALID,-0.0339617,VALID,20.2333,VALID,138,VALID,1.53457,
2002-03-11, 01:17:00,VALID,917.935,VALID,0,VALID,88.1413,VALID,-0.0509425,VALID,20.2462,VALID,142,VALID,1.74119,
2002-03-11, 01:18:00,VALID,917.906,VALID,0,VALID,88.037,VALID,0,VALID,20.2658,VALID,153,VALID,1.72245,
2002-03-11, 01:19:00,VALID,917.886,VALID,0,VALID,87.9607,VALID,0,VALID,20.2753,VALID,148,VALID,1.46094,
2002-03-11, 01:20:00,VALID,917.855,VALID,0,VALID,88.0116,VALID,-0.0169808,VALID,20.2783,VALID,152,VALID,1.7537,
2002-03-11, 01:21:00,VALID,917.834,VALID,0,VALID,88.065,VALID,-0.0339617,VALID,20.2532,VALID,158,VALID,2.07011,
2002-03-11, 01:22:00,VALID,917.817,VALID,0,VALID,88.1667,VALID,-0.0169808,VALID,20.2204,VALID,159,VALID,1.73906,
2002-03-11, 01:23:00,VALID,917.829,VALID,0,VALID,88.2748,VALID,0,VALID,20.1972,VALID,151,VALID,1.95165,
2002-03-11, 01:24:00,VALID,917.841,VALID,0,VALID,88.2977,VALID,-0.0339617,VALID,20.2005,VALID,156,VALID,1.69316,
2002-03-11, 01:25:00,VALID,917.817,VALID,0,VALID,88.2354,VALID,0,VALID,20.1972,VALID,152,VALID,1.46354,
2002-03-11, 01:26:00,VALID,917.809,VALID,0,VALID,88.2837,VALID,-0.0169808,VALID,20.2171,VALID,150,VALID,1.31764,
2002-03-11, 01:27:00,VALID,917.795,VALID,0,VALID,88.4299,VALID,0,VALID,20.1587,VALID,160,VALID,1.58333,
2002-03-11, 01:28:00,VALID,917.767,VALID,0,VALID,88.5825,VALID,0.0169808,VALID,20.1426,VALID,159,VALID,1.54996,
2002-03-11, 01:29:00,VALID,917.756,VALID,0,VALID,88.5762,VALID,-0.0339617,VALID,20.1364,VALID,149,VALID,0.942508,
2002-03-11, 01:30:00,VALID,917.753,VALID,0,VALID,88.7046,VALID,0,VALID,20.1001,VALID,138,VALID,0.860742,
2002-03-11, 01:31:00,VALID,917.741,VALID,0,VALID,88.9958,VALID,0.0169808,VALID,20.0553,VALID,140,VALID,1.38091,
2002-03-11, 01:32:00,VALID,917.728,VALID,0,VALID,89.0797,VALID,-0.0339617,VALID,20.0556,VALID,154,VALID,1.7125,
2002-03-11, 01:33:00,VALID,917.71,VALID,0,VALID,88.9462,VALID,0,VALID,20.0812,VALID,149,VALID,1.95098,
2002-03-11, 01:34:00,VALID,917.698,VALID,0,VALID,88.8229,VALID,-0.0169808,VALID,20.117,VALID,138,VALID,2.02159,
2002-03-11, 01:35:00,VALID,917.669,VALID,0,VALID,88.3333,VALID,-0.0169808,VALID,20.2169,VALID,152,VALID,2.04788,
2002-03-11, 01:36:00,VALID,917.641,VALID,0,VALID,87.5983,VALID,-0.0169808,VALID,20.3526,VALID,153,VALID,1.43236,
2002-03-11, 01:37:00,VALID,917.661,VALID,0,VALID,87.0617,VALID,0,VALID,20.4657,VALID,135,VALID,1.22416,
2002-03-11, 01:38:00,VALID,917.643,VALID,0,VALID,86.843,VALID,-0.0169808,VALID,20.5338,VALID,117,VALID,1.55879,
2002-03-11, 01:39:00,VALID,917.63,VALID,0,VALID,86.7934,VALID,-0.0339617,VALID,20.5795,VALID,117,VALID,1.35853,
2002-03-11, 01:40:00,VALID,917.615,VALID,0,VALID,86.539,VALID,-0.0339617,VALID,20.6143,VALID,115,VALID,1.57656,
2002-03-11, 01:41:00,VALID,917.629,VALID,0,VALID,86.3852,VALID,-0.0169808,VALID,20.6396,VALID,135,VALID,1.66466,
2002-03-11, 01:42:00,VALID,917.626,VALID,0,VALID,86.2224,VALID,-0.0169808,VALID,20.6625,VALID,140,VALID,1.75658,
2002-03-11, 01:43:00,VALID,917.63,VALID,0,VALID,85.9986,VALID,0,VALID,20.6886,VALID,135,VALID,1.62079,
2002-03-11, 01:44:00,VALID,917.641,VALID,0,VALID,85.8854,VALID,-0.0339617,VALID,20.7306,VALID,151,VALID,1.96567,
2002-03-11, 01:45:00,VALID,917.659,VALID,0,VALID,85.8168,VALID,-0.0339617,VALID,20.7331,VALID,150,VALID,1.71995,
2002-03-11, 01:46:00,VALID,917.67,VALID,0,VALID,85.9147,VALID,0,VALID,20.7433,VALID,141,VALID,1.55918,
2002-03-11, 01:47:00,VALID,917.692,VALID,0,VALID,85.9656,VALID,-0.0339617,VALID,20.7207,VALID,129,VALID,1.35959,
2002-03-11, 01:48:00,VALID,917.689,VALID,0,VALID,86.0838,VALID,-0.0169808,VALID,20.6986,VALID,132,VALID,1.34355,
2002-03-11, 01:49:00,VALID,917.703,VALID,0,VALID,86.1754,VALID,-0.0339617,VALID,20.6757,VALID,155,VALID,1.40705,
2002-03-11, 01:50:00,VALID,917.692,VALID,0,VALID,86.1639,VALID,-0.0169808,VALID,20.6655,VALID,153,VALID,1.23664,
2002-03-11, 01:51:00,VALID,917.666,VALID,0,VALID,86.2402,VALID,-0.0339617,VALID,20.6493,VALID,151,VALID,1.91026,
2002-03-11, 01:52:00,VALID,917.659,VALID,0,VALID,86.3928,VALID,-0.0509425,VALID,20.6237,VALID,145,VALID,1.46238,
2002-03-11, 01:53:00,VALID,917.627,VALID,0,VALID,86.567,VALID,-0.0509425,VALID,20.5919,VALID,140,VALID,1.21935,
2002-03-11, 01:54:00,VALID,917.609,VALID,0,VALID,86.9294,VALID,0,VALID,20.5203,VALID,126,VALID,1.06719,
2002-03-11, 01:55:00,VALID,917.567,VALID,0,VALID,87.3249,VALID,-0.0339617,VALID,20.4396,VALID,121,VALID,1.37204,
2002-03-11, 01:56:00,VALID,917.539,VALID,0,VALID,87.6403,VALID,-0.0339617,VALID,20.3819,VALID,133,VALID,1.77676,
2002-03-11, 01:57:00,VALID,917.525,VALID,0,VALID,87.5652,VALID,-0.0679233,VALID,20.3816,VALID,125,VALID,1.08454,
2002-03-11, 01:58:00,VALID,917.514,VALID,0,VALID,87.6352,VALID,-0.0339617,VALID,20.3779,VALID,109,VALID,1.40789,
2002-03-11, 01:59:00,VALID,917.505,VALID,0,VALID,87.5258,VALID,-0.0169808,VALID,20.4003,VALID,123,VALID,1.90645,
2002-03-11, 02:00:00,VALID,917.515,VALID,0,VALID,87.0706,VALID,-0.0339617,VALID,20.4684,VALID,116,VALID,1.18812,
2002-03-11, 02:01:00,VALID,917.523,VALID,0,VALID,87.0299,VALID,-0.0169808,VALID,20.4947,VALID,118,VALID,1.32833,
2002-03-11, 02:02:00,VALID,917.53,VALID,0,VALID,87.0286,VALID,-0.0339617,VALID,20.491,VALID,154,VALID,1.67422,
2002-03-11, 02:03:00,VALID,917.518,VALID,0,VALID,86.8913,VALID,-0.0169808,VALID,20.5069,VALID,151,VALID,2.18834,
2002-03-11, 02:04:00,VALID,917.496,VALID,0,VALID,86.7501,VALID,-0.0339617,VALID,20.5335,VALID,153,VALID,1.9125,
2002-03-11, 02:05:00,VALID,917.491,VALID,0,VALID,86.6637,VALID,0,VALID,20.5526,VALID,161,VALID,1.6256,
2002-03-11, 02:06:00,VALID,917.481,VALID,0,VALID,86.6713,VALID,0,VALID,20.5621,VALID,151,VALID,1.83964,
2002-03-11, 02:07:00,VALID,917.495,VALID,0,VALID,86.7463,VALID,0,VALID,20.5327,VALID,147,VALID,1.56891,
2002-03-11, 02:08:00,VALID,917.513,VALID,0,VALID,86.8837,VALID,-0.0169808,VALID,20.5139,VALID,155,VALID,1.35732,
2002-03-11, 02:09:00,VALID,917.528,VALID,0,VALID,87.2194,VALID,-0.0169808,VALID,20.4557,VALID,147,VALID,1.51542,
2002-03-11, 02:10:00,VALID,917.541,VALID,0,VALID,87.4978,VALID,-0.0169808,VALID,20.3973,VALID,151,VALID,1.75117,
2002-03-11, 02:11:00,VALID,917.555,VALID,0,VALID,87.6403,VALID,-0.0339617,VALID,20.3548,VALID,142,VALID,1.63978,
2002-03-11, 02:12:00,VALID,917.565,VALID,0,VALID,87.7725,VALID,0,VALID,20.3396,VALID,138,VALID,1.39043,
2002-03-11, 02:13:00,VALID,917.574,VALID,0,VALID,87.99,VALID,-0.0339617,VALID,20.3006,VALID,151,VALID,1.31951,
2002-03-11, 02:14:00,VALID,917.591,VALID,0,VALID,88.1286,VALID,0,VALID,20.2613,VALID,126,VALID,1.06908,
2002-03-11, 02:15:00,VALID,917.584,VALID,0,VALID,88.3485,VALID,0,VALID,20.2323,VALID,120,VALID,1.06811,
2002-03-11, 02:16:00,VALID,917.571,VALID,0,VALID,88.285,VALID,0,VALID,20.2454,VALID,131,VALID,0.609169,
2002-03-11, 02:17:00,VALID,917.559,VALID,0,VALID,88.1934,VALID,-0.0169808,VALID,20.2584,VALID,152,VALID,1.11318,
2002-03-11, 02:18:00,VALID,917.563,VALID,0,VALID,87.9963,VALID,0,VALID,20.2708,VALID,121,VALID,0.960938,
2002-03-11, 02:19:00,VALID,917.576,VALID,0,VALID,87.9582,VALID,-0.0169808,VALID,20.2874,VALID,142,VALID,0.467694,
2002-03-11, 02:20:00,VALID,917.585,VALID,0,VALID,88.0484,VALID,-0.0169808,VALID,20.2847,VALID,109,VALID,0.903516,
2002-03-11, 02:21:00,VALID,917.606,VALID,0,VALID,88.0472,VALID,-0.0339617,VALID,20.2775,VALID,135,VALID,1.15044,
2002-03-11, 02:22:00,VALID,917.641,VALID,0,VALID,87.9404,VALID,0,VALID,20.3073,VALID,126,VALID,1.09827,
2002-03-11, 02:23:00,VALID,917.651,VALID,0,VALID,87.8946,VALID,-0.0339617,VALID,20.3036,VALID,137,VALID,0.709936,
2002-03-11, 02:24:00,VALID,917.652,VALID,0,VALID,87.8908,VALID,-0.0339617,VALID,20.3068,VALID,122,VALID,1.00021,
2002-03-11, 02:25:00,VALID,917.645,VALID,0,VALID,87.9543,VALID,-0.0679233,VALID,20.3011,VALID,134,VALID,0.654447,
2002-03-11, 02:26:00,VALID,917.635,VALID,0,VALID,88.112,VALID,-0.0339617,VALID,20.2748,VALID,139,VALID,0.840039,
2002-03-11, 02:27:00,VALID,917.612,VALID,0,VALID,88.1667,VALID,-0.0509425,VALID,20.2621,VALID,137,VALID,0.575169,
2002-03-11, 02:28:00,VALID,917.608,VALID,0,VALID,88.1934,VALID,-0.0169808,VALID,20.2193,VALID,105,VALID,0.720312,
2002-03-11, 02:29:00,VALID,917.605,VALID,0,VALID,88.594,VALID,-0.0169808,VALID,20.1811,VALID,117,VALID,0.772436,
2002-03-11, 02:30:00,VALID,917.604,VALID,0,VALID,88.7478,VALID,0,VALID,20.1525,VALID,119,VALID,0.624178,
2002-03-11, 02:31:00,VALID,917.593,VALID,0,VALID,88.8852,VALID,-0.0169808,VALID,20.103,VALID,121,VALID,0.501803,
2002-03-11, 02:32:00,VALID,917.585,VALID,0,VALID,88.9169,VALID,0,VALID,20.0777,VALID,105,VALID,0.434827,
2002-03-11, 02:33:00,VALID,917.582,VALID,0,VALID,89.245,VALID,-0.0339617,VALID,20.0359,VALID,94,VALID,0.638822,
2002-03-11, 02:34:00,VALID,917.594,VALID,0,VALID,89.4129,VALID,-0.0169808,VALID,20.0163,VALID,112,VALID,0.388672,
2002-03-11, 02:35:00,VALID,917.578,VALID,0,VALID,89.2527,VALID,-0.0509425,VALID,19.9964,VALID,102,VALID,0.39337,
2002-03-11, 02:36:00,VALID,917.584,VALID,0,VALID,89.5527,VALID,0,VALID,19.9808,VALID,126,VALID,0.692773,
2002-03-11, 02:37:00,VALID,917.577,VALID,0,VALID,89.3633,VALID,-0.0169808,VALID,19.9651,VALID,107,VALID,0.567708,
2002-03-11, 02:38:00,VALID,917.564,VALID,0,VALID,89.863,VALID,-0.0169808,VALID,19.9097,VALID,120,VALID,0.77241,
2002-03-11, 02:39:00,VALID,917.555,VALID,0,VALID,89.9864,VALID,0,VALID,19.8548,VALID,132,VALID,0.720954,
2002-03-11, 02:40:00,VALID,917.541,VALID,0,VALID,90.2827,VALID,0,VALID,19.7927,VALID,139,VALID,1.21731,
2002-03-11, 02:41:00,VALID,917.529,VALID,0,VALID,90.5827,VALID,0.0339617,VALID,19.7509,VALID,139,VALID,1.35517,
2002-03-11, 02:42:00,VALID,917.513,VALID,0,VALID,90.8511,VALID,0.0169808,VALID,19.6764,VALID,130,VALID,0.800391,
2002-03-11, 02:43:00,VALID,917.496,VALID,0,VALID,91.2592,VALID,0.101885,VALID,19.5857,VALID,128,VALID,0.926309,
2002-03-11, 02:44:00,VALID,917.48,VALID,0,VALID,91.7997,VALID,0.0849042,VALID,19.5241,VALID,141,VALID,1.39082,
2002-03-11, 02:45:00,VALID,917.469,VALID,0,VALID,92.1646,VALID,0.0339617,VALID,19.4761,VALID,141,VALID,1.22416,
2002-03-11, 02:46:00,VALID,917.46,VALID,0,VALID,92.2676,VALID,0.0169808,VALID,19.4567,VALID,133,VALID,1.41283,
2002-03-11, 02:47:00,VALID,917.441,VALID,0,VALID,92.1456,VALID,0.0339617,VALID,19.4562,VALID,127,VALID,1.40505,
2002-03-11, 02:48:00,VALID,917.436,VALID,0,VALID,91.9815,VALID,0.0509425,VALID,19.4823,VALID,136,VALID,1.07648,
2002-03-11, 02:49:00,VALID,917.434,VALID,0,VALID,91.9624,VALID,0.0339617,VALID,19.4992,VALID,130,VALID,1.14844,
2002-03-11, 02:50:00,VALID,917.436,VALID,0,VALID,91.9866,VALID,0.0169808,VALID,19.5089,VALID,138,VALID,1.41113,
2002-03-11, 02:51:00,VALID,917.43,VALID,0,VALID,91.6598,VALID,0.0849042,VALID,19.577,VALID,155,VALID,1.26098,
2002-03-11, 02:52:00,VALID,917.427,VALID,0,VALID,91.2478,VALID,0.0339617,VALID,19.6021,VALID,141,VALID,0.970898,
2002-03-11, 02:53:00,VALID,917.424,VALID,0,VALID,91.2338,VALID,0.0339617,VALID,19.6051,VALID,143,VALID,1.27324,
2002-03-11, 02:54:00,VALID,917.415,VALID,0,VALID,91.2605,VALID,0.0849042,VALID,19.618,VALID,125,VALID,1.17866,
2002-03-11, 02:55:00,VALID,917.406,VALID,0,VALID,91.291,VALID,-0.0339617,VALID,19.6227,VALID,123,VALID,1.08073,
2002-03-11, 02:56:00,VALID,917.409,VALID,0,VALID,91.4945,VALID,-0.0509425,VALID,19.6036,VALID,124,VALID,1.24322,
2002-03-11, 02:57:00,VALID,917.399,VALID,0,VALID,91.6204,VALID,-0.0169808,VALID,19.5837,VALID,102,VALID,1.0655,
2002-03-11, 02:58:00,VALID,917.409,VALID,0,VALID,91.806,VALID,-0.0849042,VALID,19.5713,VALID,97,VALID,1.33281,
2002-03-11, 02:59:00,VALID,917.406,VALID,0,VALID,91.8251,VALID,-0.0509425,VALID,19.5747,VALID,108,VALID,1.32285,
2002-03-11, 03:00:00,VALID,917.416,VALID,0,VALID,91.8009,VALID,-0.0169808,VALID,19.5914,VALID,105,VALID,1.2,
2002-03-11, 03:01:00,VALID,917.41,VALID,0,VALID,91.7717,VALID,-0.0169808,VALID,19.568,VALID,94,VALID,0.941106,
2002-03-11, 03:02:00,VALID,917.418,VALID,0,VALID,92.0667,VALID,-0.0339617,VALID,19.5685,VALID,120,VALID,1.22204,
2002-03-11, 03:03:00,VALID,917.409,VALID,0,VALID,91.8874,VALID,-0.0849042,VALID,19.5976,VALID,117,VALID,1.21214,
2002-03-11, 03:04:00,VALID,917.401,VALID,0,VALID,91.7386,VALID,-0.0339617,VALID,19.6006,VALID,122,VALID,1.13425,
2002-03-11, 03:05:00,VALID,917.388,VALID,0,VALID,91.6598,VALID,-0.0849042,VALID,19.6036,VALID,126,VALID,0.89383,
2002-03-11, 03:06:00,VALID,917.365,VALID,0,VALID,91.6776,VALID,-0.0509425,VALID,19.6033,VALID,117,VALID,0.737305,
2002-03-11, 03:07:00,VALID,917.362,VALID,0,VALID,91.6484,VALID,-0.0169808,VALID,19.6075,VALID,132,VALID,0.618877,
2002-03-11, 03:08:00,VALID,917.352,VALID,0,VALID,91.7005,VALID,-0.0339617,VALID,19.5909,VALID,138,VALID,0.78418,
2002-03-11, 03:09:00,VALID,917.349,VALID,0,VALID,91.7285,VALID,-0.0339617,VALID,19.5782,VALID,130,VALID,0.745192,
2002-03-11, 03:10:00,VALID,917.346,VALID,0,VALID,91.8416,VALID,0,VALID,19.5673,VALID,134,VALID,1.08059,
2002-03-11, 03:11:00,VALID,917.351,VALID,0,VALID,91.8315,VALID,0.0509425,VALID,19.5641,VALID,130,VALID,1.33934,
2002-03-11, 03:12:00,VALID,917.356,VALID,0,VALID,91.5911,VALID,0.0679233,VALID,19.5832,VALID,111,VALID,1.31209,
2002-03-11, 03:13:00,VALID,917.37,VALID,0,VALID,91.4589,VALID,0.0849042,VALID,19.6252,VALID,112,VALID,1.14744,
2002-03-11, 03:14:00,VALID,917.38,VALID,0,VALID,91.2427,VALID,0.0849042,VALID,19.6828,VALID,111,VALID,1.47207,
2002-03-11, 03:15:00,VALID,917.376,VALID,0,VALID,90.8307,VALID,0.0509425,VALID,19.7606,VALID,108,VALID,1.46875,
2002-03-11, 03:16:00,VALID,917.374,VALID,0,VALID,90.2216,VALID,0.0509425,VALID,19.8739,VALID,99,VALID,1.3127,
2002-03-11, 03:17:00,VALID,917.378,VALID,0,VALID,89.6023,VALID,0.0679233,VALID,19.9639,VALID,98,VALID,0.836138,
2002-03-11, 03:18:00,VALID,917.385,VALID,0,VALID,89.404,VALID,0.0339617,VALID,20.0158,VALID,100,VALID,1.11472,
2002-03-11, 03:19:00,VALID,917.391,VALID,0,VALID,89.334,VALID,0.0339617,VALID,20.0491,VALID,115,VALID,1.25321,
2002-03-11, 03:20:00,VALID,917.4,VALID,0,VALID,89.1649,VALID,0.0169808,VALID,20.0772,VALID,115,VALID,1.30715,
2002-03-11, 03:21:00,VALID,917.411,VALID,0,VALID,88.9462,VALID,0.0679233,VALID,20.1065,VALID,115,VALID,0.713341,
2002-03-11, 03:22:00,VALID,917.426,VALID,0,VALID,88.9157,VALID,0.0849042,VALID,20.099,VALID,92,VALID,0.355664,
2002-03-11, 03:23:00,VALID,917.445,VALID,0,VALID,89.1853,VALID,0.0849042,VALID,20.0931,VALID,128,VALID,0.557644,
2002-03-11, 03:24:00,VALID,917.464,VALID,0,VALID,89.2832,VALID,0.0849042,VALID,20.0834,VALID,142,VALID,0.907227,
2002-03-11, 03:25:00,VALID,917.461,VALID,0,VALID,89.4129,VALID,0.0169808,VALID,20.0745,VALID,130,VALID,0.838542,
2002-03-11, 03:26:00,VALID,917.458,VALID,0,VALID,89.5032,VALID,-0.0339617,VALID,20.0822,VALID,132,VALID,0.753495,
2002-03-11, 03:27:00,VALID,917.461,VALID,0,VALID,89.6634,VALID,-0.0339617,VALID,20.0424,VALID,135,VALID,0.688902,
2002-03-11, 03:28:00,VALID,917.44,VALID,0,VALID,89.7905,VALID,0,VALID,20.0168,VALID,148,VALID,0.965666,
2002-03-11, 03:29:00,VALID,917.439,VALID,0,VALID,89.966,VALID,-0.0169808,VALID,20.0044,VALID,145,VALID,1.11218,
2002-03-11, 03:30:00,VALID,917.429,VALID,0,VALID,90.1682,VALID,-0.0339617,VALID,19.9525,VALID,110,VALID,0.767383,
2002-03-11, 03:31:00,VALID,917.425,VALID,0,VALID,90.2814,VALID,-0.0169808,VALID,19.9328,VALID,117,VALID,1.26267,
2002-03-11, 03:32:00,VALID,917.418,VALID,0,VALID,90.1529,VALID,-0.0169808,VALID,19.9428,VALID,118,VALID,0.977344,
2002-03-11, 03:33:00,VALID,917.428,VALID,0,VALID,90.1949,VALID,-0.0169808,VALID,19.9428,VALID,125,VALID,0.927083,